Time,TemperatureF,DewpointF,PressureIn,WindDirection,WindDirectionDegrees,WindSpeedMPH,WindSpeedGustMPH,Humidity,HourlyPrecipIn,Conditions,Clouds,dailyrainin,SolarRadiationWatts/m^2,SoftwareType,DateUTC
2013-03-03 00:09:00,37.9,26.0,30.14,WSW,249,0.0,1.0,63,0.00,,,0.00,0,weatherlink.com 1.10,2013-03-02 23:09:00,
2013-03-03 00:24:00,37.5,26.0,30.14,WSW,250,0.0,1.0,64,0.00,,,0.00,0,weatherlink.com 1.10,2013-03-02 23:24:00,
2013-03-03 00:39:00,36.4,26.0,30.14,WSW,251,0.0,1.0,65,0.00,,,0.00,0,weatherlink.com 1.10,2013-03-02 23:39:00,
2013-03-03 00:54:00,34.9,26.0,30.14,North,360,0.0,0.0,69,0.00,,,0.00,0,weatherlink.com 1.10,2013-03-02 23:54:00,
2013-03-03 01:09:00,34.0,26.0,30.14,WSW,250,0.0,0.0,71,0.00,,,0.00,0,weatherlink.com 1.10,2013-03-03 00:09:00,
2013-03-03 01:24:00,33.5,26.0,30.14,WSW,249,0.0,1.0,73,0.00,,,0.00,0,weatherlink.com 1.10,2013-03-03 00:24:00,
2013-03-03 01:39:00,33.3,26.0,30.13,WSW,248,0.0,1.0,75,0.00,,,0.00,0,weatherlink.com 1.10,2013-03-03 00:39:00,
2013-03-03 01:54:00,33.1,26.0,30.13,WSW,252,0.0,1.0,75,0.00,,,0.00,0,weatherlink.com 1.10,2013-03-03 00:54:00,
2013-03-03 02:09:00,32.9,26.0,30.13,WSW,252,0.0,0.0,76,0.00,,,0.00,0,weatherlink.com 1.10,2013-03-03 01:09:00,
2013-03-03 02:24:00,32.6,26.0,30.12,WSW,250,0.0,0.0,76,0.00,,,0.00,0,weatherlink.com 1.10,2013-03-03 01:24:00,
2013-03-03 02:39:00,32.4,26.0,30.12,WSW,250,0.0,0.0,77,0.00,,,0.00,0,weatherlink.com 1.10,2013-03-03 01:39:00,
2013-03-03 02:54:00,32.2,26.0,30.12,WSW,250,0.0,0.0,78,0.00,,,0.00,0,weatherlink.com 1.10,2013-03-03 01:54:00,
2013-03-03 03:09:00,32.2,26.0,30.12,WSW,250,0.0,0.0,78,0.00,,,0.00,0,weatherlink.com 1.10,2013-03-03 02:09:00,
2013-03-03 03:24:00,32.1,26.0,30.11,WSW,250,0.0,0.0,78,0.00,,,0.00,0,weatherlink.com 1.10,2013-03-03 02:24:00,
2013-03-03 03:39:00,32.0,26.0,30.11,North,360,0.0,0.0,78,0.00,,,0.00,0,weatherlink.com 1.10,2013-03-03 02:39:00,
2013-03-03 03:54:00,32.2,26.0,30.11,WSW,248,0.0,1.0,79,0.00,,,0.00,0,weatherlink.com 1.10,2013-03-03 02:54:00,
2013-03-03 04:09:00,32.0,26.0,30.11,WSW,250,0.0,0.0,78,0.00,,,0.00,0,weatherlink.com 1.10,2013-03-03 03:09:00,
2013-03-03 04:24:00,31.7,26.0,30.12,North,360,0.0,0.0,78,0.00,,,0.00,0,weatherlink.com 1.10,2013-03-03 03:24:00,
2013-03-03 04:39:00,31.3,26.0,30.11,WSW,250,0.0,0.0,79,0.00,,,0.00,0,weatherlink.com 1.10,2013-03-03 03:39:00,
2013-03-03 04:54:00,31.2,26.0,30.11,WSW,250,0.0,0.0,80,0.00,,,0.00,0,weatherlink.com 1.10,2013-03-03 03:54:00,
2013-03-03 05:09:00,31.0,26.0,30.11,WSW,250,0.0,1.0,80,0.00,,,0.00,0,weatherlink.com 1.10,2013-03-03 04:09:00,
2013-03-03 05:24:00,30.9,26.0,30.11,WSW,248,0.0,2.0,81,0.00,,,0.00,0,weatherlink.com 1.10,2013-03-03 04:24:00,
2013-03-03 05:39:00,30.6,25.0,30.10,WSW,248,0.0,1.0,81,0.00,,,0.00,0,weatherlink.com 1.10,2013-03-03 04:39:00,
2013-03-03 05:54:00,30.5,25.0,30.10,WSW,250,0.0,1.0,81,0.00,,,0.00,0,weatherlink.com 1.10,2013-03-03 04:54:00,
2013-03-03 06:09:00,30.3,25.0,30.10,North,360,0.0,0.0,81,0.00,,,0.00,0,weatherlink.com 1.10,2013-03-03 05:09:00,
2013-03-03 06:24:00,30.3,26.0,30.11,WSW,250,0.0,2.0,83,0.00,,,0.00,5,weatherlink.com 1.10,2013-03-03 05:24:00,
2013-03-03 06:39:00,30.8,27.0,30.11,WSW,250,0.0,0.0,84,0.00,,,0.00,19,weatherlink.com 1.10,2013-03-03 05:39:00,
2013-03-03 06:54:00,33.9,28.0,30.11,WSW,250,0.0,1.0,80,0.00,,,0.00,60,weatherlink.com 1.10,2013-03-03 05:54:00,
2013-03-03 07:10:00,36.4,29.0,30.11,North,360,0.0,2.0,74,0.00,,,0.00,93,weatherlink.com 1.10,2013-03-03 06:10:00,
2013-03-03 07:25:00,37.0,29.0,30.11,North,9,0.0,3.0,73,0.00,,,0.00,141,weatherlink.com 1.10,2013-03-03 06:25:00,
2013-03-03 07:40:00,37.7,29.0,30.11,NE,42,3.0,3.0,70,0.00,,,0.00,192,weatherlink.com 1.10,2013-03-03 06:40:00,
2013-03-03 07:55:00,39.7,29.0,30.12,West,279,0.0,2.0,66,0.00,,,0.00,237,weatherlink.com 1.10,2013-03-03 06:55:00,
2013-03-03 08:10:00,42.4,29.0,30.12,North,355,0.0,4.0,60,0.00,,,0.00,288,weatherlink.com 1.10,2013-03-03 07:10:00,
2013-03-03 08:25:00,42.1,29.0,30.11,North,360,0.0,2.0,59,0.00,,,0.00,322,weatherlink.com 1.10,2013-03-03 07:25:00,
2013-03-03 08:40:00,44.1,30.0,30.11,NNE,31,0.0,4.0,58,0.00,,,0.00,364,weatherlink.com 1.10,2013-03-03 07:40:00,
2013-03-03 08:55:00,47.3,31.0,30.11,North,5,3.0,4.0,54,0.00,,,0.00,401,weatherlink.com 1.10,2013-03-03 07:55:00,
2013-03-03 09:10:00,47.0,30.0,30.11,NNE,19,2.0,4.0,53,0.00,,,0.00,436,weatherlink.com 1.10,2013-03-03 08:10:00,
2013-03-03 09:25:00,46.4,29.0,30.10,NNE,30,1.0,4.0,51,0.00,,,0.00,466,weatherlink.com 1.10,2013-03-03 08:25:00,
2013-03-03 09:40:00,47.9,28.0,30.10,NW,318,1.0,5.0,47,0.00,,,0.00,504,weatherlink.com 1.10,2013-03-03 08:40:00,
2013-03-03 09:55:00,52.1,29.0,30.10,NNE,30,4.0,10.0,42,0.00,,,0.00,531,weatherlink.com 1.10,2013-03-03 08:55:00,
2013-03-03 10:10:00,53.4,29.0,30.10,North,350,2.0,5.0,40,0.00,,,0.00,555,weatherlink.com 1.10,2013-03-03 09:10:00,
2013-03-03 10:25:00,53.7,28.0,30.09,NE,56,3.0,7.0,38,0.00,,,0.00,580,weatherlink.com 1.10,2013-03-03 09:25:00,
2013-03-03 11:11:00,53.1,32.0,30.09,North,11,1.0,5.0,44,0.00,,,0.00,540,weatherlink.com 1.10,2013-03-03 10:11:00,
2013-03-03 11:25:00,52.5,31.0,30.09,NNW,340,0.0,8.0,44,0.00,,,0.00,427,weatherlink.com 1.10,2013-03-03 10:25:00,
2013-03-03 11:41:00,54.5,31.0,30.08,West,281,1.0,8.0,41,0.00,,,0.00,483,weatherlink.com 1.10,2013-03-03 10:41:00,
2013-03-03 11:56:00,56.7,30.0,30.08,NNW,329,6.0,10.0,36,0.00,,,0.00,680,weatherlink.com 1.10,2013-03-03 10:56:00,
2013-03-03 12:11:00,56.7,29.0,30.07,NW,305,2.0,9.0,35,0.00,,,0.00,619,weatherlink.com 1.10,2013-03-03 11:11:00,
2013-03-03 12:26:00,54.3,27.0,30.07,North,360,1.0,8.0,35,0.00,,,0.00,599,weatherlink.com 1.10,2013-03-03 11:26:00,
2013-03-03 12:41:00,53.9,30.0,30.07,SSW,202,2.0,9.0,40,0.00,,,0.00,552,weatherlink.com 1.10,2013-03-03 11:41:00,
2013-03-03 12:56:00,52.6,29.0,30.06,NW,315,0.0,11.0,41,0.00,,,0.00,573,weatherlink.com 1.10,2013-03-03 11:56:00,
2013-03-03 13:11:00,54.1,31.0,30.05,NNE,15,2.0,10.0,41,0.00,,,0.00,485,weatherlink.com 1.10,2013-03-03 12:11:00,
2013-03-03 13:26:00,53.5,30.0,30.05,North,9,6.0,8.0,41,0.00,,,0.00,552,weatherlink.com 1.10,2013-03-03 12:26:00,
2013-03-03 13:41:00,54.6,31.0,30.04,NNW,332,2.0,9.0,40,0.00,,,0.00,524,weatherlink.com 1.10,2013-03-03 12:41:00,
2013-03-03 13:56:00,52.6,29.0,30.04,West,281,1.0,5.0,41,0.00,,,0.00,503,weatherlink.com 1.10,2013-03-03 12:56:00,
2013-03-03 14:11:00,52.8,29.0,30.04,NNW,333,6.0,7.0,41,0.00,,,0.00,459,weatherlink.com 1.10,2013-03-03 13:11:00,
2013-03-03 14:26:00,52.1,30.0,30.04,SW,219,6.0,9.0,43,0.00,,,0.00,439,weatherlink.com 1.10,2013-03-03 13:26:00,
2013-03-03 14:41:00,50.3,29.0,30.03,North,360,0.0,8.0,44,0.00,,,0.00,58,weatherlink.com 1.10,2013-03-03 13:41:00,
2013-03-03 14:56:00,49.6,29.0,30.03,WNW,302,3.0,7.0,45,0.00,,,0.00,54,weatherlink.com 1.10,2013-03-03 13:56:00,
2013-03-03 15:11:00,49.2,30.0,30.02,North,360,2.0,6.0,47,0.00,,,0.00,49,weatherlink.com 1.10,2013-03-03 14:11:00,
2013-03-03 15:26:00,48.4,29.0,30.02,NE,52,1.0,8.0,47,0.00,,,0.00,49,weatherlink.com 1.10,2013-03-03 14:26:00,
2013-03-03 15:41:00,47.4,29.0,30.02,NNE,26,3.0,7.0,49,0.00,,,0.00,47,weatherlink.com 1.10,2013-03-03 14:41:00,
2013-03-03 15:56:00,46.7,29.0,30.03,North,360,0.0,8.0,51,0.00,,,0.00,40,weatherlink.com 1.10,2013-03-03 14:56:00,
2013-03-03 16:11:00,46.2,30.0,30.02,North,350,1.0,9.0,53,0.00,,,0.00,37,weatherlink.com 1.10,2013-03-03 15:11:00,
2013-03-03 16:26:00,45.4,30.0,30.02,WSW,239,1.0,6.0,55,0.00,,,0.00,32,weatherlink.com 1.10,2013-03-03 15:26:00,
2013-03-03 16:41:00,44.9,31.0,30.02,North,360,0.0,7.0,58,0.00,,,0.00,25,weatherlink.com 1.10,2013-03-03 15:41:00,
2013-03-03 16:56:00,44.4,30.0,30.02,North,355,1.0,5.0,57,0.00,,,0.00,18,weatherlink.com 1.10,2013-03-03 15:56:00,
2013-03-03 17:11:00,43.9,30.0,30.02,NNE,14,3.0,3.0,58,0.00,,,0.00,12,weatherlink.com 1.10,2013-03-03 16:11:00,
2013-03-03 17:26:00,43.4,31.0,30.02,SW,232,2.0,7.0,61,0.00,,,0.00,5,weatherlink.com 1.10,2013-03-03 16:26:00,
2013-03-03 17:41:00,42.9,31.0,30.03,NW,313,4.0,5.0,62,0.00,,,0.00,0,weatherlink.com 1.10,2013-03-03 16:41:00,
2013-03-03 17:56:00,42.5,30.0,30.03,NNE,21,3.0,8.0,61,0.00,,,0.00,0,weatherlink.com 1.10,2013-03-03 16:56:00,
2013-03-03 18:11:00,41.9,29.0,30.04,NW,309,0.0,5.0,61,0.00,,,0.00,0,weatherlink.com 1.10,2013-03-03 17:11:00,
2013-03-03 18:26:00,41.5,29.0,30.04,North,5,0.0,4.0,61,0.00,,,0.00,0,weatherlink.com 1.10,2013-03-03 17:26:00,
2013-03-03 18:41:00,41.2,29.0,30.04,WSW,248,1.0,7.0,63,0.00,,,0.00,0,weatherlink.com 1.10,2013-03-03 17:41:00,
2013-03-03 19:11:00,40.8,29.0,30.04,SSE,159,1.0,3.0,64,0.00,,,0.00,0,weatherlink.com 1.10,2013-03-03 18:11:00,
2013-03-03 19:26:00,40.7,30.0,30.04,NNW,344,1.0,5.0,65,0.00,,,0.00,0,weatherlink.com 1.10,2013-03-03 18:26:00,
2013-03-03 19:56:00,40.1,29.0,30.04,WSW,248,1.0,5.0,66,0.00,,,0.00,0,weatherlink.com 1.10,2013-03-03 18:56:00,
2013-03-03 20:11:00,39.8,29.0,30.04,WSW,254,1.0,4.0,66,0.00,,,0.00,0,weatherlink.com 1.10,2013-03-03 19:11:00,
2013-03-03 20:26:00,39.7,29.0,30.05,West,266,0.0,5.0,67,0.00,,,0.00,0,weatherlink.com 1.10,2013-03-03 19:26:00,
2013-03-03 20:41:00,39.6,29.0,30.05,SW,226,1.0,12.0,67,0.00,,,0.00,0,weatherlink.com 1.10,2013-03-03 19:41:00,
2013-03-03 20:56:00,39.3,29.0,30.05,SW,226,0.0,5.0,67,0.00,,,0.00,0,weatherlink.com 1.10,2013-03-03 19:56:00,
2013-03-03 21:11:00,38.8,29.0,30.05,North,360,3.0,7.0,68,0.00,,,0.00,0,weatherlink.com 1.10,2013-03-03 20:11:00,
2013-03-03 21:26:00,38.1,29.0,30.06,WNW,288,0.0,7.0,69,0.00,,,0.00,0,weatherlink.com 1.10,2013-03-03 20:26:00,
2013-03-03 21:41:00,37.6,29.0,30.06,North,5,2.0,6.0,72,0.00,,,0.00,0,weatherlink.com 1.10,2013-03-03 20:41:00,
2013-03-03 22:12:00,36.9,28.0,30.08,ENE,63,2.0,5.0,71,0.00,,,0.00,0,weatherlink.com 1.10,2013-03-03 21:12:00,
2013-03-03 22:26:00,36.6,28.0,30.07,NW,316,2.0,7.0,71,0.00,,,0.00,0,weatherlink.com 1.10,2013-03-03 21:26:00,
2013-03-03 22:56:00,37.0,28.0,30.07,West,273,2.0,4.0,69,0.00,,,0.00,0,weatherlink.com 1.10,2013-03-03 21:56:00,
2013-03-03 23:56:00,36.3,27.0,30.09,North,360,2.0,5.0,70,0.00,,,0.00,0,weatherlink.com 1.10,2013-03-03 22:56:00,